Tracking 25195 objects as of 20-Jan-2022
HD Live streaming from Space Station
objects crossing your sky now

STARLINK-2064

Track STARLINK-2064 now!
10-day predictions
STARLINK-2064 is classified as:


NORAD ID: 47671
Int'l Code: 2021-012BD
Perigee: 553.3 km
Apogee: 555.4 km
Inclination: 53.1 °
Period: 95.6 minutes
Semi major axis: 6925 km
RCS: Unknown
Launch date: February 16, 2021
Source: United States (US)
Launch site: AIR FORCE EASTERN TEST RANGE (AFETR)
aabbcc
Your satellite tracking list
Your tracking list is empty




NASA's NSSDC Master Catalog

Two Line Element Set (TLE):
1 47671U 21012BD  22019.19182287  .00002388  00000-0  17919-3 0  9994
2 47671  53.0567 352.5196 0001497  67.4884 292.6264 15.06388664 52603
Source of the keplerian elements: AFSPC